FW7161 Weather Reports


Display with metric or nautical units.
time (UTC)temp
F
wind
direction
speed
MPH
gust
MPH
rain 1hr
in
rain 24hr
in
rain mn
in
humidity
%
barometer
mb
20260503024416 51 282 0.0 0.0 0.00 0.00 0.00 33 1024.2
20260503022913 51 208 0.0 0.0 0.00 0.00 0.00 31 1023.9
20260503021412 51 120 0.0 0.0 0.00 0.00 0.00 33 1023.9
20260503015909 52 175 0.0 0.0 0.00 0.00 0.00 32 1023.7
20260503014405 54 150 0.0 0.0 0.00 0.00 0.00 31 1023.7
20260503012903 56 130 0.0 0.0 0.00 0.00 0.00 30 1023.7
20260503011400 58 176 0.0 0.0 0.00 0.00 0.00 28 1023.8
20260503005856 59 136 0.0 1.0 0.00 0.00 0.00 27 1023.7
20260503004353 60 138 0.0 2.0 0.00 0.00 0.00 26 1023.7
20260503002850 60 135 1.0 3.0 0.00 0.00 0.00 24 1023.8
20260503001346 61 163 0.0 0.0 0.00 0.00 0.00 25 1023.7
20260502235844 62 136 1.0 3.0 0.00 0.00 0.00 23 1023.7
20260502234341 62 151 0.0 0.0 0.00 0.00 0.00 24 1023.7
20260502232836 63 121 0.0 0.0 0.00 0.00 0.00 23 1023.9
20260502231333 62 202 2.0 3.0 0.00 0.00 0.00 22 1023.9
20260502225831 63 296 0.0 0.0 0.00 0.00 0.00 22 1024.2
20260502224327 63 129 0.0 1.0 0.00 0.00 0.00 23 1024.4
20260502222826 63 181 0.0 1.0 0.00 0.00 0.00 22 1024.3
20260502221321 62 123 0.0 0.0 0.00 0.00 0.00 22 1024.6
20260502215817 62 167 0.0 0.0 0.00 0.00 0.00 24 1024.7
20260502214314 61 123 1.0 5.0 0.00 0.00 0.00 25 1024.9
20260502212813 61 112 2.0 6.0 0.00 0.00 0.00 26 1025.3
20260502211309 62 267 0.0 0.0 0.00 0.00 0.00 24 1025.8
20260502205807 62 262 0.0 0.0 0.00 0.00 0.00 25 1025.7
20260502204303 62 321 0.0 0.0 0.00 0.00 0.00 25 1025.7
20260502202803 61 153 0.0 0.0 0.00 0.00 0.00 23 1025.7
20260502201300 60 146 0.0 0.0 0.00 0.00 0.00 26 1025.9
20260502195757 61 158 0.0 0.0 0.00 0.00 0.00 26 1025.8
20260502194252 60 102 0.0 0.0 0.00 0.00 0.00 24 1026.0
20260502192751 61 138 0.0 0.0 0.00 0.00 0.00 26 1026.0
20260502191249 60 94 0.0 0.0 0.00 0.00 0.00 25 1026.4
20260502185744 60 224 4.0 5.0 0.00 0.00 0.00 26 1026.5
20260502184239 59 219 0.0 0.0 0.00 0.00 0.00 29 1026.5
20260502182739 59 101 3.0 5.0 0.00 0.00 0.00 25 1026.7
20260502181237 57 187 0.0 1.0 0.00 0.00 0.00 27 1026.7
20260502164218 56 334 0.0 0.0 0.00 0.00 0.00 30 1027.5
20260502162713 55 250 0.0 0.0 0.00 0.00 0.00 30 1027.7
20260502161209 55 47 0.0 0.0 0.00 0.00 0.00 29 1027.5
20260502151200 53 311 0.0 0.0 0.00 0.00 0.00 29 1027.7
20260502122623 36 294 0.0 0.0 0.00 0.00 0.00 58 1027.1
20260502121121 33 280 0.0 0.0 0.00 0.00 0.00 64 1026.7
20260502115618 32 284 0.0 0.0 0.00 0.00 0.00 64 1026.7
20260502114113 33 275 0.0 0.0 0.00 0.00 0.00 64 1026.7
20260502112612 32 268 0.0 0.0 0.00 0.00 0.00 67 1026.7
20260502111110 33 273 0.0 0.0 0.00 0.00 0.00 63 1026.6
20260502105608 35 291 0.0 0.0 0.00 0.00 0.00 56 1026.7
20260502104105 33 282 0.0 0.0 0.00 0.00 0.00 64 1026.5
20260502102603 33 277 0.0 0.0 0.00 0.00 0.00 65 1026.7
20260502101102 35 281 0.0 0.0 0.00 0.00 0.00 60 1026.4
20260502091055 33 294 0.0 0.0 0.00 0.00 0.00 67 1026.3
20260502071031 37 347 0.0 0.0 0.00 0.00 0.00 57 1026.6
20260502065531 38 349 0.0 0.0 0.00 0.00 0.00 55 1026.6
20260502064029 38 346 0.0 0.0 0.00 0.00 0.00 55 1026.5
20260502062527 38 343 0.0 0.0 0.00 0.00 0.00 56 1026.5
20260502061026 37 328 0.0 0.0 0.00 0.00 0.00 62 1026.4
20260502055521 37 344 0.0 0.0 0.00 0.00 0.00 63 1026.6
20260502054021 37 350 0.0 0.0 0.00 0.00 0.00 60 1026.5
20260502052520 37 302 0.0 0.0 0.00 0.00 0.00 60 1026.1
20260502051019 35 295 0.0 0.0 0.00 0.00 0.00 65 1026.3
20260502045520 37 326 0.0 0.0 0.00 0.00 0.00 59 1026.3
20260502044015 36 289 0.0 0.0 0.00 0.00 0.00 62 1026.0
20260502042516 36 314 0.0 0.0 0.00 0.00 0.00 68 1026.0
20260502041014 37 291 0.0 0.0 0.00 0.00 0.00 65 1026.0
20260502035509 37 298 0.0 0.0 0.00 0.00 0.00 63 1025.9
20260502034003 38 302 0.0 0.0 0.00 0.00 0.00 61 1025.8
20260502032459 37 291 0.0 0.0 0.00 0.00 0.00 65 1025.8
20260502030958 38 293 0.0 0.0 0.00 0.00 0.00 56 1025.5